RH
16 15 20 21 18 14 11 12 12 12 13 15 18 19 18 15 15 17 17 15 14 14 13 13 12 12 14 15 16 15 15 16 18 18 18 19 19 19 18 18 18 18 18 15 15 17 20 22 24 26 23 23 21 23 33 38 50 56 55 58 50 46 47 43 43 40 38 38 37 33 33 36 35 37 37 38 40 42 44 47 48 47 49 47 49 56 60 68
15 12 13 17 15 11 12 11 12 15 14 13 14 14 15 15 15 14 14 14 14 14 13 13 12 11 12 14 15 14 14 16 17 17 18 20 19 18 18 19 17 17 18 16 18 18 16 18 23 24 20 21 21 24 29 32 47 53 51 53 41 36 44 45 41 39 40 41 39 34 33 35 34 33 33 34 32 35 39 38 43 45 43 43 48 57 63 68
13 12 12 14 14 12 12 11 13 16 16 16 14 13 14 14 15 14 13 13 13 14 13 12 12 11 11 13 15 15 15 15 14 16 19 19 18 18 18 17 17 17 17 15 19 18 15 18 22 21 19 20 19 23 27 29 39 43 47 45 35 37 42 44 43 41 41 41 38 33 33 34 33 33 32 33 29 30 32 29 34 39 35 33 38 50 61 65
12 12 13 13 13 12 12 11 13 17 20 20 17 14 12 13 14 14 13 13 13 13 12 12 12 12 12 13 15 15 15 12 12 17 19 18 18 18 17 17 18 17 15 16 22 22 19 21 22 20 20 20 21 24 24 27 33 36 42 34 30 42 38 35 41 40 37 35 33 28 31 32 29 34 33 31 31 27 24 22 25 27 24 23 30 45 57 60
13 13 13 13 12 12 11 11 13 18 22 23 22 19 15 13 12 13 13 13 12 12 12 12 12 12 12 14 17 16 13 11 14 18 18 18 18 17 17 17 16 17 16 17 25 25 20 21 20 19 19 18 21 23 20 26 34 35 36 29 30 41 35 30 34 33 28 26 26 25 27 27 28 33 32 30 31 25 17 18 21 20 19 21 29 45 54 56
13 13 13 12 12 11 11 12 15 18 20 22 23 23 21 16 13 13 13 13 13 13 13 12 13 12 13 15 16 16 13 12 17 17 18 18 17 17 16 16 16 17 18 17 23 24 20 19 17 17 17 17 19 19 17 24 34 30 25 29 32 37 37 33 30 27 25 24 24 25 24 25 28 27 26 29 28 23 17 18 23 23 28 32 36 46 51 52
13 13 12 12 11 11 12 15 17 17 17 19 20 22 24 21 16 12 12 13 13 13 13 13 13 12 14 16 15 16 15 14 17 17 18 18 16 17 16 16 16 16 18 18 20 19 18 18 17 18 17 17 18 17 19 23 31 30 24 26 28 33 36 31 28 26 25 25 23 24 24 24 24 22 24 27 24 21 19 20 27 31 37 40 39 43 46 48
13 12 12 11 11 12 16 17 17 17 17 17 18 20 23 24 20 14 13 12 13 13 13 13 13 13 15 15 16 16 15 14 16 18 18 18 17 17 16 16 16 16 18 18 18 16 16 17 16 17 16 18 17 17 24 22 23 28 24 24 26 28 28 24 25 24 23 23 23 24 24 21 20 21 25 24 19 18 18 19 24 29 34 37 36 37 41 44
12 12 11 10 12 15 17 16 15 15 16 16 17 18 20 23 22 17 14 12 13 13 13 13 12 14 15 16 17 13 13 15 18 19 18 18 17 17 17 17 16 16 17 19 20 17 16 15 15 15 14 17 16 19 27 21 19 25 23 22 25 22 20 22 22 21 23 23 23 24 21 19 19 21 21 18 16 15 16 18 18 23 28 30 31 32 36 41
12 12 10 10 14 16 15 14 13 13 14 15 16 18 19 21 20 18 16 13 13 13 13 13 12 15 15 15 14 10 15 18 18 19 18 17 16 17 18 17 17 16 17 19 20 18 17 16 15 15 15 18 19 23 27 23 23 26 24 23 23 20 20 22 21 22 24 24 24 23 19 17 19 23 18 15 19 19 18 18 17 22 24 23 25 27 32 37
11 11 10 12 15 15 14 13 13 13 13 15 17 18 19 19 19 18 16 13 13 13 13 12 13 16 15 14 11 11 17 19 18 18 17 16 15 15 17 17 17 16 17 18 19 18 17 17 16 16 18 19 21 25 27 27 26 24 23 22 20 19 19 20 20 23 24 23 24 24 21 19 22 26 19 16 21 20 18 17 18 21 21 20 20 23 28 34
11 11 11 15 16 14 14 14 14 14 15 17 17 18 18 18 18 17 15 13 13 13 13 12 14 17 17 14 12 13 18 19 17 17 16 15 14 13 14 17 18 17 17 16 17 17 17 19 16 17 20 19 20 24 26 28 25 22 24 23 20 18 17 19 22 25 23 22 25 25 20 17 22 23 16 15 19 19 20 18 17 19 19 19 19 21 25 30
11 11 13 16 16 14 15 15 15 15 16 17 17 17 17 17 17 16 14 13 13 13 13 13 15 18 18 15 15 16 19 19 18 17 16 14 13 12 13 17 18 17 17 16 17 17 17 19 16 19 23 19 22 27 27 27 23 23 25 24 21 17 18 23 27 27 24 24 26 24 16 9 14 16 14 16 17 19 20 16 15 16 17 19 20 22 23 27
11 13 17 17 15 14 15 15 15 15 16 16 17 17 17 17 16 15 14 14 13 13 13 14 18 21 18 17 19 18 19 20 19 17 16 14 13 13 14 17 17 17 17 17 17 17 19 20 19 23 27 26 27 28 27 24 22 24 26 26 23 17 16 24 28 25 22 25 26 25 19 11 9 11 14 18 19 19 17 14 13 13 14 16 18 21 21 23
12 16 19 17 14 14 14 14 14 14 15 16 16 16 16 15 15 14 14 14 14 13 14 17 21 23 22 21 20 19 20 20 18 17 16 14 14 14 15 16 17 17 17 17 18 20 22 20 20 22 26 31 29 26 25 22 21 23 22 22 22 19 16 21 31 30 24 24 24 24 21 14 10 12 17 21 21 20 18 16 15 14 15 15 15 17 17 18
12 15 18 17 15 14 14 14 13 14 15 15 15 15 15 15 15 15 15 16 16 15 18 22 23 23 24 21 19 18 19 18 17 17 16 16 15 14 16 17 19 19 19 21 21 22 22 20 28 31 25 25 25 23 23 21 21 24 22 18 18 19 16 18 30 36 29 25 25 24 21 16 13 14 19 22 20 20 20 18 16 15 15 15 15 15 16 16
13 14 18 17 15 16 15 14 15 15 15 15 15 15 16 17 17 17 19 20 20 21 25 27 24 23 23 20 18 17 17 17 17 17 17 17 15 15 18 19 20 20 20 21 20 21 20 22 31 33 24 23 24 23 21 18 16 19 22 20 19 20 19 17 24 33 32 29 27 25 26 23 17 15 18 19 19 19 18 17 16 15 15 14 14 14 14 15
14 15 19 18 17 17 16 16 17 17 18 18 18 18 19 20 21 22 24 25 25 25 25 27 24 21 21 18 17 18 17 17 18 18 17 16 15 15 19 21 19 19 19 20 19 19 19 22 26 25 24 25 25 23 20 16 14 16 20 20 19 22 22 19 21 28 32 33 32 29 29 25 19 17 15 15 17 18 17 16 15 14 13 12 12 13 14 15
15 16 19 19 18 18 18 19 19 18 19 19 20 21 22 25 26 25 25 24 25 24 22 27 26 21 21 18 16 18 17 19 18 16 17 16 15 17 19 20 19 18 19 19 18 22 23 24 26 24 25 25 25 24 20 18 19 21 24 24 24 23 22 20 21 31 36 35 34 31 30 24 19 17 14 14 16 16 14 12 12 13 13 14 16 18 20 20
17 15 18 20 19 19 22 22 22 23 24 25 27 28 28 29 28 28 28 27 31 33 30 32 30 23 21 19 18 18 17 18 18 16 18 17 16 18 18 17 18 18 22 25 23 28 30 25 24 23 21 21 22 23 23 23 25 27 30 29 27 26 24 20 23 37 42 34 28 27 29 24 19 16 13 13 13 11 11 12 15 18 19 21 24 28 29 28
19 17 17 20 18 20 24 24 24 27 29 31 33 31 29 28 27 27 29 32 42 44 34 34 35 25 21 21 21 19 16 15 17 17 18 19 17 15 14 17 20 16 26 40 34 31 33 25 23 23 21 23 24 25 28 30 31 32 31 28 27 28 25 21 27 37 39 33 26 25 26 21 16 13 11 10 11 13 16 19 24 25 27 29 32 36 36 34
19 19 18 19 19 18 21 25 27 27 28 32 34 31 28 29 27 23 24 29 39 42 33 32 33 25 21 22 22 20 16 14 15 15 19 20 16 15 15 17 18 18 30 41 30 25 29 24 24 26 26 29 32 32 32 33 36 34 29 29 28 26 22 22 29 35 35 30 24 23 24 19 14 12 11 12 15 20 24 27 31 33 36 37 38 41 41 39
16 19 19 18 19 18 18 22 25 26 28 31 32 30 30 34 32 25 24 27 32 38 35 29 26 21 19 20 21 21 17 16 14 14 21 21 16 21 21 15 18 23 27 27 20 17 17 18 27 32 30 29 33 37 36 35 36 31 28 29 27 23 22 21 25 31 32 29 24 24 25 19 14 13 12 16 21 27 30 32 35 38 40 42 42 43 43 43
16 19 20 17 18 19 18 20 23 24 26 28 27 27 32 36 33 26 26 31 33 36 36 34 30 22 19 21 21 20 18 20 16 14 24 23 18 25 23 19 24 24 22 25 25 19 14 22 34 35 30 27 29 35 35 30 27 26 28 29 25 23 24 22 23 26 25 25 25 22 18 13 14 13 12 17 24 29 33 36 38 40 42 43 43 44 45 46
18 19 19 19 19 19 20 21 23 22 24 27 25 28 31 31 33 27 24 29 28 30 36 36 32 23 21 22 22 22 20 22 20 19 30 30 22 24 24 26 24 16 23 34 30 21 21 34 39 32 31 30 28 31 31 27 23 22 25 28 27 24 25 26 26 24 18 17 18 15 11 10 10 10 10 15 24 30 35 40 42 42 44 46 46 47 47 47
18 18 19 20 19 21 22 22 21 20 24 26 23 28 30 29 33 25 23 28 21 27 38 32 27 24 22 24 26 26 23 22 24 25 33 36 31 27 24 29 26 20 33 36 25 23 27 37 38 29 30 32 29 28 29 30 25 21 25 30 30 29 28 29 26 22 17 13 14 14 13 13 10 8 10 16 27 35 38 42 46 44 45 48 49 49 49 49
18 18 20 20 20 22 21 20 21 22 26 27 24 26 29 30 31 23 25 25 15 27 39 29 27 26 25 31 30 27 25 24 26 27 30 30 29 26 22 28 28 30 44 33 15 22 29 32 34 30 29 29 27 25 27 31 26 23 30 31 28 27 26 26 24 20 17 15 17 15 12 15 13 12 17 21 28 39 43 46 48 47 48 49 49 50 51 51
17 19 21 21 21 22 21 18 20 23 26 29 26 25 27 28 28 25 23 17 15 30 36 30 30 26 29 35 30 31 36 30 25 27 32 30 26 23 22 28 26 29 45 30 11 22 28 24 27 29 27 23 23 26 31 32 24 23 32 32 27 25 22 22 21 19 18 19 21 16 12 17 14 13 21 25 33 46 50 50 51 51 51 52 52 52 52 52
17 19 22 22 22 24 25 21 21 26 30 33 30 26 27 26 23 23 20 13 18 30 33 31 30 28 34 34 32 39 41 33 28 29 31 30 26 23 26 33 33 35 44 34 18 22 26 27 29 26 22 21 27 35 37 33 26 30 36 31 27 27 24 24 22 21 22 24 25 17 11 16 15 17 26 32 46 58 55 52 53 53 53 53 54 54 53 53
17 19 22 22 23 27 31 30 29 31 35 37 35 30 25 23 23 21 15 13 18 28 34 33 32 38 40 32 33 41 37 33 38 37 34 35 30 28 35 43 40 35 35 35 30 24 30 43 42 33 28 26 32 39 41 39 35 36 32 23 21 22 22 25 23 24 25 24 24 18 13 14 16 26 40 46 55 64 61 57 56 55 55 54 54 55 54 54
22 22 23 23 25 30 34 37 33 30 35 34 31 30 23 24 28 19 13 18 23 29 33 33 39 46 43 34 31 37 38 38 42 39 33 34 32 27 32 35 31 28 24 25 28 25 27 36 37 38 39 33 30 32 38 39 33 29 24 19 21 19 18 22 22 24 25 20 20 21 18 15 15 29 47 53 55 58 62 65 63 61 58 56 56 54 55 57
30 26 26 26 29 31 33 37 33 28 31 27 23 28 25 21 22 17 18 23 22 25 29 34 45 46 42 38 31 34 39 36 40 43 35 32 29 26 30 27 20 22 20 17 19 19 18 23 30 39 39 34 28 23 28 32 27 25 23 22 26 23 21 23 22 22 22 19 20 21 19 17 21 36 50 53 54 54 58 61 63 64 61 58 57 56 57 58
36 32 29 30 31 32 33 36 33 28 27 22 21 30 28 18 15 21 28 23 17 26 35 40 44 41 39 32 27 37 39 30 35 44 43 36 27 26 33 33 25 20 17 16 16 15 16 23 31 32 31 34 30 19 20 24 23 25 22 21 26 26 28 30 25 24 25 21 19 19 21 21 26 43 52 51 52 52 52 55 59 61 62 60 58 56 57 58
37 34 31 33 33 33 33 31 29 29 25 20 23 27 22 16 19 27 30 22 23 35 40 42 40 34 33 27 27 36 31 25 33 36 33 29 20 20 25 29 28 20 14 16 17 18 18 19 25 27 26 32 31 22 18 18 19 23 20 20 25 25 30 35 30 29 30 24 19 20 23 23 27 41 51 51 51 49 48 50 53 57 60 61 61 59 59 60
33 31 30 33 33 33 33 28 27 27 22 23 30 28 19 20 23 23 25 27 32 38 38 38 32 22 23 24 30 36 26 22 29 26 24 21 18 21 22 24 27 21 17 21 21 20 17 13 21 33 33 31 31 27 22 19 20 23 18 18 24 23 23 28 26 27 29 27 25 23 23 28 37 46 50 51 51 48 47 48 50 57 60 59 63 65 62 62
29 28 29 31 32 34 32 28 26 26 24 27 30 25 21 24 21 21 36 41 36 37 35 30 23 18 19 20 24 32 28 24 25 21 20 22 21 23 23 26 31 26 21 24 24 22 20 17 23 33 34 31 31 29 26 23 20 20 20 20 22 19 19 25 26 24 26 31 29 21 21 30 41 47 50 52 53 51 49 51 52 57 62 62 65 68 64 62
25 26 30 33 35 34 30 29 25 24 30 32 28 27 26 26 22 28 48 52 40 37 30 22 21 20 23 23 20 25 26 24 25 21 17 19 21 23 24 26 32 32 26 24 24 24 26 24 23 27 28 30 38 38 34 33 25 18 23 23 20 20 19 22 29 32 33 37 32 23 25 29 28 38 52 56 58 58 53 52 54 58 65 68 66 65 64 61
24 26 31 33 34 33 31 30 23 23 34 36 37 42 37 33 35 40 52 53 41 34 26 21 24 22 24 26 22 27 29 24 24 22 17 16 19 24 27 26 30 34 33 30 25 23 28 27 25 28 27 28 36 35 31 34 30 22 23 22 22 30 30 26 34 43 45 49 44 33 33 31 25 38 58 64 65 66 60 57 59 62 67 70 67 63 63 62
27 30 34 31 30 32 31 27 25 31 35 29 32 40 37 37 47 59 71 62 38 31 27 22 24 24 25 27 25 29 32 28 27 24 19 17 21 31 35 30 30 32 34 34 26 24 27 27 27 29 27 25 25 25 26 29 27 25 26 23 22 29 32 32 36 39 43 50 49 44 40 33 36 52 64 67 68 68 67 66 66 67 68 67 66 63 61 62
34 38 36 28 27 31 28 24 31 42 39 29 32 37 38 44 52 70 91 76 43 34 33 26 27 29 28 30 30 31 31 30 30 26 21 19 23 34 40 37 35 32 31 32 28 26 26 25 26 25 23 24 22 22 26 24 24 28 32 34 33 31 30 34 36 35 41 45 45 54 53 37 44 63 65 66 67 63 66 71 69 67 65 58 56 58 59 59
40 47 37 26 26 29 27 30 42 49 41 34 38 41 49 57 55 65 86 80 56 46 40 33 33 34 33 34 33 32 32 31 31 28 24 24 28 35 40 43 43 36 32 31 29 29 29 27 29 28 26 25 21 22 24 22 23 29 35 37 37 36 35 42 46 41 43 46 48 63 64 47 53 65 61 62 62 58 63 70 68 63 60 56 50 49 53 54
44 46 33 25 25 24 28 40 54 52 38 34 40 51 64 65 56 58 68 66 55 49 44 38 39 39 37 36 34 34 34 31 32 29 24 29 39 41 41 47 49 39 34 35 34 33 33 31 34 34 29 23 21 22 25 26 26 30 37 36 34 39 42 51 57 51 50 54 52 60 65 60 66 68 62 61 56 53 58 61 58 54 52 52 48 44 47 51
49 37 25 24 23 26 34 41 51 50 42 44 52 61 68 62 52 54 58 54 48 45 41 39 41 41 37 37 37 35 34 31 30 28 26 32 41 45 48 52 50 41 39 40 37 36 35 33 35 35 26 21 24 25 24 28 31 34 39 40 41 48 51 55 57 55 61 61 53 60 65 60 67 69 61 58 53 51 53 50 48 46 42 43 45 44 42 46
54 39 31 26 18 25 38 38 42 48 49 49 47 50 58 59 58 56 52 53 52 44 39 39 40 37 37 43 42 37 37 33 29 29 31 32 37 45 53 56 49 44 45 47 45 42 35 30 35 38 31 25 26 24 24 29 34 36 42 47 51 57 64 65 58 56 65 60 53 69 71 54 60 67 57 53 54 52 50 45 43 43 40 39 41 40 35 39
47 39 41 35 23 31 46 48 47 50 51 46 38 40 46 50 64 70 58 57 62 52 42 41 43 42 42 45 43 41 40 35 32 36 35 34 37 41 49 54 49 45 53 64 62 51 39 34 35 37 37 32 26 23 28 35 37 37 47 58 62 68 74 70 59 62 73 67 62 74 74 55 50 52 48 49 52 51 49 46 42 41 41 39 38 38 33 34
39 40 43 40 37 44 53 57 54 48 45 42 36 40 40 33 48 67 62 56 61 60 51 45 46 45 42 42 42 41 41 37 36 40 41 42 42 42 49 53 48 51 67 75 64 49 41 37 35 36 38 35 31 30 32 35 39 41 53 66 73 79 79 69 67 74 78 81 77 66 64 66 56 46 46 51 52 53 52 48 45 44 42 41 39 39 36 33
41 45 46 39 37 43 48 53 54 46 42 41 36 39 42 34 34 46 51 51 56 60 54 46 46 45 43 47 46 41 42 40 38 43 48 50 49 46 49 50 48 59 70 62 49 42 36 34 44 55 50 39 37 35 30 34 44 46 53 65 72 80 81 76 77 75 72 87 88 61 58 76 68 50 51 57 59 60 57 51 49 46 44 42 40 39 37 34
38 40 49 45 37 39 43 48 54 52 47 48 46 42 40 39 38 39 42 45 48 50 42 35 42 50 52 52 47 45 45 36 38 54 58 58 61 54 47 46 48 54 55 44 42 45 34 33 58 72 59 43 37 33 33 42 46 45 50 58 61 71 82 85 83 70 68 87 88 65 63 73 62 51 56 62 61 59 57 54 51 47 45 43 40 40 38 37
42 40 50 53 48 47 50 54 57 53 47 48 48 44 39 39 42 43 42 40 39 39 36 30 36 50 56 47 40 46 47 34 41 64 68 69 75 65 52 51 50 46 44 41 49 50 34 36 68 80 63 45 36 37 46 50 45 46 54 56 57 63 71 78 76 64 64 73 64 53 61 60 49 53 61 57 52 49 50 53 53 51 49 45 42 42 40 43
47 43 47 50 51 52 55 58 54 43 40 44 43 43 44 41 41 45 48 47 36 30 34 36 40 54 55 40 33 44 48 42 47 60 64 68 71 64 55 54 53 48 46 48 54 47 29 36 68 78 56 40 42 49 49 42 41 52 57 54 57 64 67 72 71 64 68 69 55 54 64 56 43 53 59 50 46 47 47 51 53 52 50 45 43 44 45 51
41 39 40 40 46 51 51 51 48 38 36 39 41 43 44 41 42 46 50 54 48 41 45 45 44 54 51 36 34 43 47 49 52 52 54 57 60 61 58 58 60 54 51 60 63 53 40 38 54 64 45 30 45 55 42 34 48 67 70 64 65 72 75 71 63 58 64 70 68 68 66 55 48 55 58 51 47 48 47 50 53 52 48 45 44 48 54 60
38 37 39 42 46 51 51 46 41 39 40 44 48 49 44 43 48 47 43 49 52 51 57 55 45 45 43 33 36 47 52 57 60 60 62 61 59 59 54 55 59 54 58 67 62 64 68 48 37 51 43 29 43 47 29 28 50 69 74 71 70 74 72 62 54 49 50 58 69 68 57 52 58 63 63 59 55 52 49 49 51 52 50 46 47 55 61 58
Wind_Speed
8 8 8 9 12 11 9 10 9 9 10 10 10 10 10 9 9 9 8 6 5 3 2 1 1 0 2 3 2 2 1 1 1 1 1 0 1 4 5 6 8 7 6 6 2 3 4 4 5 6 6 4 1 1 2 2 2 3 3 5 6 6 6 4 6 4 4 7 5 0 2 6 8 1 2 1 7 9 8 8 8 8 12 13 7 2 3 5
7 8 8 10 11 10 9 9 8 8 8 9 10 10 10 10 9 9 9 7 6 4 3 2 1 1 1 2 3 1 1 2 2 1 1 1 1 4 5 7 8 6 5 4 0 3 3 4 5 6 5 3 1 1 3 2 3 5 3 5 7 6 4 2 5 5 5 9 10 6 2 5 8 3 1 5 10 8 10 11 9 12 15 16 13 9 7 7
6 6 7 9 10 10 9 9 8 6 6 7 9 10 10 10 10 9 9 8 7 5 4 3 2 1 1 2 4 2 2 3 4 2 2 1 2 3 5 7 7 6 5 3 0 3 4 2 6 6 4 3 1 1 3 3 3 5 3 7 7 5 5 4 6 8 7 8 11 9 1 4 6 2 1 6 13 11 13 12 10 12 13 15 14 13 11 11
5 6 6 8 9 10 10 9 8 6 5 6 7 9 10 11 10 10 9 9 7 6 5 4 3 2 1 2 5 3 2 4 2 3 1 1 2 4 6 7 6 5 4 2 2 2 3 4 6 4 3 4 1 2 4 4 3 2 4 8 5 1 6 6 5 6 6 4 8 7 2 6 4 2 5 7 12 14 15 13 12 12 12 13 9 12 12 13
6 6 6 7 9 10 10 10 9 7 6 6 6 7 9 10 10 10 9 9 7 6 6 4 3 2 1 2 5 4 3 3 2 3 0 2 3 4 6 6 6 5 4 2 3 5 5 6 6 3 3 3 2 3 4 4 2 2 7 10 6 3 7 6 1 2 2 1 5 6 5 7 2 3 9 11 12 14 13 8 7 11 11 10 4 9 11 13
6 6 7 8 9 10 11 11 10 9 7 7 6 6 7 8 9 10 9 8 8 7 6 5 4 3 2 3 5 4 3 2 2 2 1 2 3 4 4 5 5 5 3 1 4 4 4 4 4 3 3 3 4 5 2 3 3 5 7 7 7 6 8 5 1 0 0 3 7 5 5 5 5 10 9 14 19 18 16 7 2 5 4 4 2 7 11 13
6 7 8 9 10 11 11 11 10 9 8 7 6 7 7 7 8 9 9 9 8 8 7 6 5 4 4 5 4 2 2 1 2 3 1 3 4 4 3 4 5 4 2 1 3 3 3 4 5 3 3 3 4 4 1 2 4 7 8 6 5 4 8 7 1 1 2 6 7 3 5 7 12 12 5 13 21 18 17 10 2 3 1 2 5 8 11 13
7 8 9 9 10 11 11 11 10 10 9 7 6 6 7 7 7 8 9 9 9 9 9 7 6 5 6 6 4 2 1 1 3 3 0 3 5 4 3 2 4 4 1 3 3 3 3 5 4 2 4 3 2 3 1 2 6 9 10 7 3 2 7 6 3 5 5 7 4 2 8 13 14 8 6 19 22 15 14 14 10 7 6 8 11 12 12 13
7 8 9 10 10 11 11 11 11 9 8 6 5 6 7 7 8 9 10 10 11 10 9 8 7 7 8 5 3 2 1 3 3 2 1 3 4 3 2 1 2 3 1 3 3 4 3 4 3 3 5 1 2 3 2 4 5 6 8 6 4 7 6 3 6 6 4 3 1 5 13 15 8 4 12 22 19 11 9 12 13 10 11 12 13 14 13 13
8 8 9 9 10 11 12 12 10 6 3 3 4 5 6 7 8 9 10 12 11 10 9 8 8 9 8 5 3 2 3 4 3 1 1 3 3 3 2 1 0 1 1 2 4 5 3 3 2 2 4 1 3 2 2 4 2 1 5 7 8 11 6 3 7 4 1 2 2 7 15 15 2 3 12 11 1 2 3 8 9 8 11 13 13 12 12 13
8 8 8 9 10 11 11 9 6 2 2 3 4 6 6 7 8 9 10 11 10 10 9 9 10 10 7 5 3 1 4 5 2 1 1 3 3 3 2 3 2 1 1 2 4 5 4 3 4 2 1 1 2 3 3 2 3 2 4 9 10 11 7 7 7 3 1 2 3 6 15 16 4 5 16 8 3 0 5 10 9 8 11 12 13 12 9 11
7 7 7 9 8 9 7 5 4 5 6 6 7 7 7 8 9 9 9 9 9 9 9 10 11 10 6 3 3 1 5 6 3 2 2 4 4 3 2 4 4 3 2 2 3 5 4 4 7 4 1 1 1 2 2 0 2 3 3 9 12 11 8 5 2 1 1 1 2 4 13 13 9 12 17 6 0 3 6 12 10 10 11 10 12 10 8 11
6 6 6 7 6 5 4 4 6 7 7 8 8 8 8 9 9 9 9 9 9 10 9 10 11 9 5 2 2 3 5 5 3 2 3 4 5 5 2 3 4 3 4 4 2 3 4 5 7 3 0 2 2 1 1 1 2 4 2 4 10 10 5 0 1 0 2 1 1 3 9 10 7 12 9 1 1 4 7 12 11 10 9 8 9 8 9 11
5 5 5 5 3 4 5 6 7 8 8 8 8 9 9 9 9 9 9 9 9 9 9 10 10 7 3 1 2 5 5 4 3 1 4 5 5 4 1 2 4 5 5 5 4 3 3 5 6 2 2 1 1 1 2 2 1 4 3 2 4 6 1 3 2 1 2 1 1 4 5 11 11 4 4 3 1 3 9 13 13 12 9 9 8 8 11 10
4 4 5 3 2 5 6 7 8 10 10 10 10 10 10 9 9 10 9 9 9 9 9 10 8 4 2 1 3 4 4 4 2 3 5 6 5 2 1 3 5 4 4 4 4 3 6 7 4 2 2 0 1 2 4 3 2 2 4 3 2 3 3 1 3 1 2 2 2 4 5 11 16 6 5 3 3 3 9 15 15 15 14 13 11 10 11 10
3 3 4 3 3 5 5 7 9 10 11 11 10 10 10 9 9 9 9 9 8 9 9 7 6 3 2 1 3 3 3 2 0 4 6 5 4 3 4 4 2 1 2 4 6 7 7 4 1 1 0 2 3 3 5 5 3 2 3 5 3 4 7 4 3 2 1 2 3 6 6 10 12 4 5 6 4 4 11 17 17 15 15 14 12 11 11 11
2 2 4 2 3 4 5 6 8 10 10 10 10 10 10 9 10 11 11 10 8 8 6 4 4 2 1 2 2 2 1 0 2 5 5 4 4 4 4 1 2 3 5 7 5 5 2 1 1 1 1 1 2 2 4 5 3 1 2 5 5 6 7 5 1 3 2 3 4 6 9 15 18 14 10 7 6 8 12 16 17 15 14 13 12 12 12 12
1 3 4 3 4 5 6 7 8 9 10 10 10 10 10 10 10 11 11 9 5 4 4 4 3 1 0 2 1 1 2 4 4 5 3 3 4 3 2 1 2 4 6 3 2 2 1 0 1 3 2 3 3 4 5 4 3 4 4 5 6 6 7 8 5 2 2 4 6 7 11 19 22 20 19 9 4 8 12 14 15 15 15 14 13 14 14 15
1 4 5 3 4 5 6 8 9 10 10 10 11 11 11 10 8 6 6 5 2 2 1 2 2 2 1 1 1 2 4 5 3 2 1 4 5 1 2 2 2 3 3 2 2 2 1 1 2 4 4 5 6 7 8 6 5 6 6 6 8 8 9 11 6 2 1 5 9 10 11 18 21 20 19 10 1 5 13 12 11 12 14 15 15 15 15 16
2 4 6 5 5 5 6 8 11 11 10 9 9 7 6 4 2 2 3 3 1 1 2 1 0 1 1 1 2 4 3 2 1 2 4 7 5 1 1 1 2 3 3 2 1 2 1 3 6 7 7 5 5 7 6 3 3 4 5 7 9 9 11 11 3 4 3 4 9 8 9 17 20 20 20 12 8 11 14 14 15 16 15 15 15 16 16 16
1 3 6 7 7 7 6 8 10 10 7 5 3 2 1 1 1 0 1 1 2 3 3 1 0 2 1 1 2 3 1 1 2 2 4 7 3 1 0 1 3 3 1 0 0 1 1 6 7 6 5 3 0 3 3 1 2 5 6 8 9 8 11 11 1 4 3 3 6 3 7 16 18 22 20 10 15 16 16 17 17 17 16 14 16 17 17 15
2 3 5 8 9 8 7 7 8 6 3 1 1 1 1 2 3 1 1 1 1 2 2 1 0 1 1 0 2 2 0 1 1 2 4 6 1 1 1 1 3 2 1 1 2 2 4 8 5 1 2 3 3 2 3 4 5 5 5 6 8 5 8 9 2 3 3 3 6 4 8 14 18 23 13 13 17 14 16 17 16 17 16 15 17 17 17 17
4 3 5 7 9 8 7 7 7 6 4 2 2 2 2 2 2 3 1 1 0 1 2 1 0 0 1 1 2 3 1 2 0 1 6 6 1 1 1 2 2 1 1 4 5 4 4 4 2 3 4 4 2 3 4 3 4 6 5 5 8 4 3 5 1 3 3 5 7 9 11 12 16 14 6 18 15 15 15 16 16 15 16 17 17 17 18 20
6 5 4 6 9 9 8 7 6 5 5 4 2 1 2 2 3 4 1 1 0 1 1 1 1 1 2 2 3 3 1 2 1 1 7 5 1 1 1 1 1 2 2 4 6 9 7 0 3 2 3 2 1 2 4 4 5 7 8 7 10 8 6 7 4 5 6 7 5 8 10 7 7 4 9 13 13 17 15 15 18 17 16 15 16 17 19 20
7 6 5 6 9 10 9 7 6 6 6 4 1 2 4 3 4 3 0 0 0 0 1 1 1 1 2 2 5 4 1 0 1 2 6 4 1 1 0 1 2 2 2 2 3 8 7 2 2 1 1 2 4 4 4 5 6 6 6 8 12 12 10 9 7 8 7 4 3 3 8 5 1 4 6 7 12 16 14 17 19 17 17 15 16 18 18 18
6 5 6 7 9 12 10 5 5 8 6 3 4 5 4 3 3 2 1 0 1 1 1 0 0 1 1 3 5 2 2 0 1 2 3 3 1 1 1 1 1 1 2 2 3 4 2 2 1 1 2 2 4 5 3 5 6 6 1 2 7 8 8 8 7 5 6 6 1 1 5 7 5 1 5 8 12 14 15 18 18 16 16 15 15 17 17 18
4 5 7 8 12 14 9 3 6 8 3 3 6 6 4 3 3 2 1 0 1 1 1 1 1 2 2 3 3 2 2 2 1 1 2 3 2 1 2 1 1 1 1 2 3 1 2 2 2 2 2 2 3 3 3 7 5 3 1 2 2 2 4 5 5 5 5 8 4 5 7 8 8 1 9 9 9 14 16 17 18 16 16 16 17 19 19 19
3 6 8 10 14 14 6 2 7 6 2 3 7 7 5 3 1 2 1 1 1 1 1 2 1 2 2 1 3 2 3 3 1 0 1 2 2 1 3 3 2 1 1 3 5 0 2 0 1 2 1 2 1 2 1 8 6 1 2 2 1 1 3 3 5 6 4 6 6 6 9 6 7 2 9 10 8 14 16 16 17 16 18 19 20 20 18 17
3 6 8 12 15 12 5 3 6 5 2 4 6 6 4 1 1 1 0 1 0 1 1 1 1 1 3 1 2 2 2 2 2 2 2 1 2 1 1 1 1 1 1 2 6 3 1 1 0 1 2 2 1 2 1 6 5 1 2 1 1 2 1 1 4 4 1 5 7 4 10 6 6 0 7 9 8 11 13 13 14 16 18 18 18 18 17 16
3 6 10 14 15 10 5 4 4 4 4 3 4 5 3 0 1 1 2 0 1 1 0 1 1 1 5 4 2 2 2 1 2 4 2 1 0 0 1 1 0 2 1 2 6 5 0 2 0 1 1 1 3 2 1 2 0 1 2 3 3 4 2 1 2 1 2 5 4 1 7 7 4 2 6 6 6 9 10 10 13 15 16 16 15 15 14 13
5 7 11 14 12 8 4 3 3 4 3 3 5 5 2 1 0 1 2 0 1 2 1 1 2 2 5 4 2 3 3 2 3 4 2 0 1 0 1 0 0 2 2 1 3 4 2 2 1 1 1 1 2 2 1 1 1 1 2 4 5 3 2 2 2 2 4 4 2 3 2 6 6 0 6 5 5 7 8 9 12 15 15 14 14 13 12 13
8 9 12 11 9 6 4 4 4 5 5 6 6 3 0 0 0 0 1 1 1 2 2 1 2 3 3 2 1 4 4 2 3 3 3 3 2 3 2 3 3 2 2 2 3 3 1 1 1 1 1 2 3 2 1 3 2 2 3 3 5 4 2 3 3 2 4 3 2 2 1 4 3 2 6 6 5 6 7 8 9 12 14 13 13 13 12 13
10 9 10 9 7 6 6 6 5 6 7 6 3 2 1 1 1 0 2 2 1 2 1 1 1 3 4 1 2 4 2 1 3 2 1 2 1 3 1 1 3 3 2 3 5 5 2 1 1 2 1 1 3 3 2 0 1 2 2 2 4 5 4 6 6 5 5 4 2 4 2 3 2 4 6 6 6 5 6 7 8 9 12 12 13 14 12 13
8 7 8 8 7 7 7 5 5 5 6 4 2 1 1 1 1 1 1 2 1 1 1 1 2 2 1 1 3 4 2 1 3 3 2 2 2 4 3 3 4 2 3 4 2 3 3 1 1 1 1 1 2 2 3 2 1 0 2 2 3 4 4 5 6 7 8 8 3 1 1 3 1 5 7 6 6 6 6 7 7 8 10 10 11 13 14 14
7 7 8 8 6 6 5 5 4 5 4 3 2 1 1 0 1 1 1 2 2 3 1 1 1 1 1 2 1 1 1 1 3 3 3 3 3 4 4 6 8 4 3 4 2 1 5 2 3 2 2 1 2 0 1 3 1 1 1 2 2 2 3 5 7 6 6 8 6 3 2 2 3 5 7 5 4 7 8 8 8 10 10 11 11 12 14 13
7 7 8 8 7 5 4 4 4 4 3 2 2 2 1 0 1 1 0 2 1 3 4 1 0 1 1 1 0 2 1 1 4 4 2 2 3 4 3 3 6 5 4 4 3 2 5 3 3 3 1 1 0 1 1 3 2 1 2 3 2 1 3 6 7 3 2 7 6 4 4 1 3 4 6 3 4 7 10 11 10 11 12 12 12 11 12 12
7 8 8 10 9 6 4 3 3 5 3 1 2 2 0 1 0 1 1 1 0 1 3 2 2 2 2 1 2 4 3 0 2 4 1 1 2 5 4 2 2 4 4 3 2 2 4 6 1 4 2 2 1 1 2 2 3 2 2 4 3 2 3 2 4 3 5 8 6 6 9 6 4 3 5 1 7 10 11 12 12 12 12 11 11 12 12 13
5 6 7 11 10 6 4 4 4 5 3 1 2 2 1 1 0 1 0 1 1 1 2 1 2 2 2 1 2 4 5 3 3 3 2 1 2 5 5 2 2 2 2 3 3 2 2 6 2 2 1 2 2 3 2 1 0 2 3 3 3 2 2 1 2 4 7 9 8 9 12 10 7 2 2 5 9 11 12 13 13 14 13 12 13 14 14 14
2 3 3 9 10 6 4 4 4 2 2 1 1 2 0 0 1 1 1 1 1 1 1 1 1 1 2 1 2 2 2 3 4 3 2 2 1 4 5 3 2 4 3 2 3 2 1 4 3 1 2 1 2 1 4 3 1 0 2 1 0 1 4 4 3 4 6 9 9 10 10 7 2 2 4 6 9 10 12 12 12 14 13 12 13 13 14 13
1 1 1 8 9 5 3 3 2 2 2 1 0 1 0 0 1 2 0 1 1 1 1 1 0 1 2 1 1 2 1 2 3 2 2 3 1 3 5 4 4 7 5 1 1 2 1 2 4 3 2 2 2 3 6 5 0 1 1 2 2 3 4 5 4 1 3 8 9 8 10 6 2 4 3 6 8 10 11 11 11 11 12 12 13 12 13 12
2 1 1 7 8 3 2 4 3 2 2 1 0 1 1 1 1 2 1 1 1 1 1 1 1 1 2 1 1 1 2 1 1 1 1 3 3 2 4 4 3 6 5 1 0 3 2 2 5 7 5 6 7 5 3 4 1 3 3 3 4 4 4 5 5 0 0 6 7 8 12 7 3 3 4 6 7 8 10 11 10 11 12 13 14 14 13 12
2 2 2 8 8 2 3 3 2 1 1 1 1 1 1 1 1 1 1 1 1 1 1 2 2 2 1 2 1 1 2 2 1 2 1 3 4 3 4 5 5 5 3 2 1 2 2 2 4 7 7 9 8 5 4 1 3 5 3 4 2 3 2 5 8 6 5 7 4 7 12 6 3 3 4 6 7 8 9 9 10 11 12 13 15 16 15 14
2 2 3 10 8 2 3 3 0 1 2 1 1 1 1 1 1 1 1 1 1 1 2 2 2 2 2 1 1 1 2 1 0 2 2 3 3 1 4 8 6 3 2 1 0 1 1 1 3 6 7 7 4 3 4 2 3 2 3 4 1 2 2 4 7 7 8 9 7 8 10 4 3 2 3 5 6 6 7 9 10 11 11 13 15 15 15 16
1 1 2 10 8 1 1 2 2 2 2 1 1 2 1 2 2 2 2 3 3 1 2 2 2 2 1 1 1 1 2 1 1 1 1 2 2 2 2 6 6 4 3 2 2 3 1 1 3 5 7 5 1 1 1 1 1 3 3 4 3 2 3 3 4 4 6 9 8 7 9 5 3 3 2 6 7 7 7 8 9 10 11 13 14 13 15 17
1 1 1 8 11 5 1 1 1 2 2 1 3 3 1 2 2 2 2 3 3 2 1 2 1 1 1 0 1 1 2 1 1 1 1 1 1 1 2 5 6 6 4 3 3 3 2 2 3 4 5 6 6 6 4 4 5 4 1 2 3 3 3 3 4 5 6 6 7 7 9 9 6 4 7 9 11 12 11 10 10 11 12 13 13 14 15 16
1 1 0 3 8 6 2 1 1 2 2 2 2 2 2 2 2 1 1 2 2 2 2 2 1 1 1 2 1 2 3 2 1 1 2 3 2 2 4 4 4 6 6 4 2 2 1 1 2 4 5 6 8 10 9 9 9 8 6 2 3 2 1 2 4 6 5 7 7 7 10 14 15 15 14 13 14 15 15 14 12 11 13 14 14 15 17 17
0 1 1 0 2 2 2 2 3 2 1 0 1 2 3 3 2 0 1 2 1 1 1 2 3 2 2 4 2 2 4 3 1 1 2 2 2 3 4 1 3 8 7 3 3 1 1 1 1 1 6 8 11 14 14 11 8 10 12 6 4 3 1 1 3 5 7 6 6 9 15 16 17 18 17 14 13 14 15 15 13 12 14 16 16 19 21 19
1 2 0 1 0 1 2 2 3 3 3 2 1 1 2 3 4 2 2 1 1 2 1 2 5 6 3 3 2 2 5 4 1 1 1 1 2 4 4 2 3 7 6 3 4 3 1 2 1 0 6 10 14 15 12 8 7 10 11 7 6 5 3 3 3 5 7 6 8 13 18 17 17 17 15 12 11 14 16 15 14 15 17 19 21 22 22 20
1 3 1 2 1 2 1 1 1 3 5 4 2 2 2 4 5 2 2 1 1 3 4 2 5 6 3 2 2 2 4 3 1 1 1 0 1 2 2 1 1 5 6 4 3 2 1 1 1 2 7 10 12 10 3 4 9 9 5 6 7 6 5 6 5 7 9 9 11 15 17 18 16 11 9 10 11 13 14 13 15 17 19 21 22 22 21 19
1 2 1 2 3 2 2 1 0 2 4 3 2 2 2 3 4 2 2 3 3 3 4 3 4 4 2 3 4 3 1 2 4 4 3 1 1 1 0 1 1 4 6 3 2 2 3 2 2 1 6 6 4 2 2 7 10 6 4 8 9 8 7 8 8 10 10 11 14 17 16 15 10 7 8 12 12 13 14 15 16 17 19 20 21 21 19 16
3 3 3 4 3 2 2 1 1 1 3 3 2 1 1 2 2 1 2 3 3 3 3 4 4 2 1 3 5 2 3 5 8 8 6 4 2 0 1 1 1 3 4 2 1 3 3 2 0 0 5 4 2 1 9 10 2 3 6 9 10 8 7 8 9 9 9 11 16 16 13 11 9 8 11 14 14 17 19 18 16 16 18 19 19 19 17 14
4 4 3 3 3 2 2 1 1 1 2 2 2 1 1 2 0 1 2 2 1 2 1 3 3 1 1 3 6 5 7 7 7 6 5 3 1 2 2 2 2 1 1 1 1 1 1 2 2 2 5 3 2 5 13 8 3 3 5 6 6 5 5 8 10 11 12 11 11 12 11 11 11 11 13 16 18 20 20 17 16 16 17 17 17 16 15 15
Wind_Direction
309 302 299 307 305 304 306 303 291 274 263 256 254 252 249 245 242 242 242 239 234 233 259 286 303 343 136 157 140 111 55 17 335 341 354 128 9 332 337 343 340 340 337 344 346 168 143 148 140 148 173 165 219 181 164 209 184 208 224 243 252 249 255 255 260 274 311 299 295 184 175 279 297 261 177 243 238 236 239 232 224 234 239 242 244 200 187 170
296 298 296 300 302 304 309 307 296 280 268 259 253 250 248 243 239 238 237 234 233 233 242 245 258 274 177 184 178 204 301 300 262 248 109 132 333 327 340 346 342 344 342 347 357 183 178 170 154 165 186 182 207 172 190 188 189 228 235 249 254 257 268 284 274 273 278 287 300 304 222 262 291 317 71 269 266 241 247 248 218 234 243 239 231 211 200 178
287 292 295 298 301 308 312 309 301 286 272 263 255 250 246 240 234 232 231 228 228 229 239 242 234 227 220 188 185 209 267 259 242 158 122 143 314 335 350 351 353 355 350 355 56 206 224 193 161 178 201 206 189 169 205 171 191 231 235 253 259 264 274 264 252 261 274 290 298 300 291 258 271 290 241 269 282 265 254 253 224 233 244 241 224 198 192 190
288 290 295 297 304 312 313 310 306 294 279 265 252 243 238 235 229 225 224 224 222 222 234 246 241 224 211 177 184 197 248 257 228 131 124 341 332 348 356 359 8 5 6 38 92 140 188 159 159 183 222 217 156 185 217 186 191 210 213 253 275 295 275 259 237 264 285 295 288 296 314 278 267 222 243 257 279 270 261 253 235 247 259 259 225 184 193 200
290 299 302 303 310 314 313 311 308 302 290 274 259 244 231 227 225 221 220 219 218 217 221 233 239 225 206 178 185 201 246 260 130 133 304 356 343 354 360 5 12 12 28 84 107 105 129 144 158 181 225 226 178 202 222 188 190 246 229 254 276 262 270 270 223 278 297 284 273 275 282 292 309 232 239 243 257 261 271 271 240 259 272 280 236 174 195 205
299 311 310 313 318 316 316 312 306 301 293 283 270 257 237 225 219 217 216 215 212 212 213 218 224 217 187 175 184 205 244 276 98 177 302 15 346 0 1 7 14 18 37 105 129 132 140 151 188 195 217 241 210 218 226 158 186 257 243 249 260 249 261 275 47 85 217 256 263 272 291 307 280 264 245 236 244 251 270 293 290 280 292 303 238 183 200 207
312 320 317 321 321 319 319 311 303 298 292 283 269 258 245 228 217 214 212 210 207 207 209 206 207 195 169 167 168 171 250 303 114 178 115 18 351 4 355 10 20 20 44 138 149 175 177 186 215 201 227 245 222 225 206 151 198 247 259 260 259 245 253 269 342 248 237 254 266 309 301 276 261 271 278 246 249 253 266 279 268 262 245 243 231 210 212 213
321 324 322 323 325 325 320 310 304 298 289 280 259 245 239 227 214 209 207 205 202 204 205 200 194 180 166 164 168 175 239 182 139 159 85 357 350 355 339 11 21 28 76 188 181 196 191 205 215 181 233 248 216 217 173 223 218 228 255 268 263 247 252 270 294 258 249 252 265 301 267 261 258 286 303 263 263 265 265 268 259 245 238 241 241 234 227 223
328 327 325 329 333 329 320 315 313 302 287 272 242 225 224 216 205 200 199 198 196 199 197 191 185 174 168 163 191 224 165 144 142 141 354 339 340 338 323 8 29 41 98 179 188 200 198 216 209 206 248 277 204 217 167 234 232 221 255 280 277 273 272 285 276 261 254 247 178 257 265 263 259 334 283 263 269 277 263 261 260 253 248 248 246 242 235 230
332 330 329 334 337 332 327 326 323 310 279 239 202 195 200 200 197 191 189 191 192 192 186 183 178 170 172 170 200 235 137 143 145 133 2 348 345 341 309 240 186 43 94 143 179 194 207 227 177 202 258 254 205 217 172 224 281 319 281 290 274 275 284 259 261 255 236 258 203 253 273 270 216 78 269 261 296 282 254 256 253 246 250 251 249 244 237 234
333 334 335 342 343 337 333 335 345 32 109 136 152 168 179 182 183 180 182 185 183 181 177 174 174 171 173 186 212 191 140 155 149 137 32 13 1 347 297 233 216 237 166 158 198 202 226 223 149 144 246 178 193 208 203 237 323 345 311 293 273 270 268 240 249 257 244 259 202 244 274 267 168 164 251 247 91 243 275 270 254 240 248 252 253 249 239 236
336 337 343 354 350 338 338 3 51 85 105 120 133 144 154 159 165 169 170 171 168 169 170 170 170 169 166 194 220 136 146 163 149 115 30 359 345 342 296 224 215 230 228 237 230 208 229 203 180 203 221 150 225 235 221 219 314 300 300 295 287 279 270 249 253 296 225 217 189 250 280 262 186 208 244 239 258 282 277 273 265 249 248 252 256 254 244 242
339 340 356 6 354 345 15 56 79 94 105 114 122 129 137 146 154 156 155 156 159 160 163 166 166 168 179 203 181 156 161 167 158 117 357 343 344 343 290 220 219 240 250 256 247 219 232 200 192 217 106 219 265 48 168 168 269 278 252 286 298 292 277 151 67 83 191 182 220 251 293 284 222 218 231 151 249 267 270 272 273 262 254 253 253 255 254 248
344 356 17 15 2 29 57 74 88 96 99 105 111 119 128 137 143 141 143 145 151 157 160 163 162 169 203 219 143 167 173 168 177 279 340 349 358 354 199 231 272 265 251 244 246 239 210 167 163 143 82 280 313 114 222 219 220 280 272 224 285 295 294 118 126 206 202 131 244 243 267 284 292 261 159 122 209 251 276 277 279 277 272 265 259 258 260 255
351 17 35 29 41 59 71 84 91 96 99 103 106 113 121 127 132 132 134 136 144 153 153 159 165 173 215 168 145 169 176 173 186 337 342 354 3 1 304 303 295 267 241 230 218 166 139 143 148 139 110 117 240 233 264 265 208 271 283 248 224 266 279 140 121 195 249 125 191 247 261 278 294 307 127 127 145 184 277 282 283 283 280 281 281 275 275 277
357 33 49 47 81 82 90 96 95 99 102 107 111 115 118 120 126 127 127 130 137 146 152 166 178 201 258 128 136 155 161 173 304 342 340 348 347 331 322 314 325 268 174 141 133 122 119 128 115 323 226 212 231 256 283 269 233 183 246 277 282 272 296 319 103 120 245 155 191 240 272 285 288 285 141 154 187 238 280 284 286 289 292 299 303 301 301 304
10 71 73 76 101 104 112 108 102 103 103 107 111 115 119 120 125 127 127 129 131 143 163 172 166 202 283 123 149 158 137 247 325 331 327 332 329 333 335 337 78 84 126 122 123 125 105 87 126 232 204 203 225 243 276 272 254 181 216 274 278 265 287 296 184 116 145 204 230 232 253 270 273 273 262 227 232 274 283 289 300 308 313 318 321 325 329 329
76 109 108 112 114 114 116 111 107 106 106 108 110 112 118 119 123 131 134 133 129 150 169 155 158 242 210 150 202 246 294 299 319 326 314 330 333 337 10 97 119 119 133 134 167 186 284 242 205 254 223 206 204 207 249 278 309 302 287 283 289 275 260 261 253 122 138 228 247 240 252 270 274 278 280 265 220 279 294 303 312 322 330 339 347 350 351 348
121 123 134 144 134 123 115 115 113 110 109 109 111 113 116 117 121 141 154 156 175 206 194 158 195 281 69 119 316 316 301 299 318 355 34 356 339 331 45 52 141 158 170 200 173 169 275 217 214 250 228 214 206 210 240 277 309 298 292 283 287 288 271 266 261 124 77 273 261 248 251 273 282 284 287 285 186 314 314 322 336 349 358 4 6 4 359 356
131 137 154 165 159 140 122 124 122 115 112 109 115 121 123 123 121 157 183 192 219 313 327 25 151 304 31 74 327 326 317 292 54 70 43 2 354 166 55 20 183 188 208 238 148 107 304 251 238 240 243 240 216 220 247 300 322 282 277 271 268 274 277 278 266 115 97 287 271 254 252 274 284 285 288 309 19 11 355 6 17 16 12 10 8 5 2 0
149 151 169 177 174 159 137 137 137 129 119 111 128 159 154 198 283 322 215 197 95 35 358 27 119 287 307 328 339 346 346 125 105 83 26 6 16 184 226 145 198 209 192 5 15 101 240 253 249 244 265 311 199 221 237 247 245 251 259 271 272 262 266 278 326 113 137 245 267 259 269 278 283 285 295 355 43 33 26 30 26 18 15 11 9 7 4 2
213 181 180 186 184 171 154 153 159 161 161 163 228 233 190 231 261 242 269 251 98 36 18 88 184 286 2 333 18 22 317 346 96 120 13 356 350 259 322 171 221 235 100 123 232 231 232 251 266 60 94 79 78 150 197 225 235 243 247 263 273 266 268 282 11 98 156 223 271 292 288 282 278 283 310 59 69 53 42 40 31 18 16 13 10 9 5 4
241 214 190 194 192 181 171 168 177 192 212 232 248 243 218 238 210 160 155 285 43 36 54 59 356 50 49 88 47 14 323 354 356 101 8 344 284 288 283 224 230 231 168 203 224 256 254 256 313 66 123 135 100 129 169 226 238 234 237 252 263 275 294 275 41 79 195 229 280 296 286 273 266 275 52 85 82 66 53 44 38 26 20 15 12 11 9 8
246 221 200 199 193 187 182 176 185 200 211 233 270 243 177 144 145 146 131 303 277 38 64 22 319 3 36 64 27 3 31 29 283 14 4 345 249 212 247 226 222 216 225 211 221 253 264 167 97 107 139 175 220 166 183 238 262 239 231 244 261 275 279 267 312 337 269 234 254 284 281 271 254 235 108 106 84 61 48 37 36 28 22 17 14 17 16 13
243 219 200 193 189 187 183 183 202 207 207 217 190 130 128 127 141 156 242 324 160 101 127 164 177 77 53 32 11 13 98 4 280 326 354 351 328 246 106 91 247 241 183 173 226 256 274 18 97 190 176 214 239 239 215 233 276 266 232 244 265 280 284 281 309 321 297 249 184 296 304 306 231 165 124 99 69 51 36 34 32 24 20 15 15 19 18 16
237 217 196 184 185 183 179 192 209 197 202 204 166 138 125 129 140 149 268 301 108 67 49 176 140 42 31 359 6 33 186 155 68 353 356 7 355 255 218 138 223 290 147 181 251 259 289 50 50 256 195 203 238 257 212 194 266 285 266 291 276 280 284 283 298 297 296 294 239 8 301 291 278 195 64 58 63 48 34 32 27 22 20 14 16 19 15 14
229 212 193 180 181 181 179 201 192 182 199 201 178 161 133 127 142 168 264 296 97 34 354 352 352 359 357 354 351 291 277 350 91 49 21 8 3 216 242 208 206 269 152 238 283 237 116 89 91 109 161 204 238 268 182 182 245 290 58 347 302 285 278 271 278 259 283 308 284 201 213 261 275 296 54 48 55 39 28 25 20 18 16 14 19 18 12 9
216 202 188 176 179 181 180 179 177 179 208 181 173 170 145 109 147 228 261 56 59 13 12 10 34 30 11 12 18 341 323 341 303 42 23 349 4 202 244 257 246 275 141 242 277 254 98 93 155 140 192 254 248 353 158 199 232 333 76 325 21 31 292 259 264 264 289 315 289 198 183 240 263 174 57 42 41 24 14 15 13 11 12 15 17 13 7 2
197 187 174 172 176 175 162 145 169 180 160 147 163 175 164 91 289 243 117 129 28 48 41 358 154 41 353 325 40 32 338 347 345 337 336 323 24 9 264 288 248 304 96 234 265 277 68 59 64 154 269 304 72 45 294 217 231 31 123 202 142 172 248 242 258 275 278 270 279 203 179 228 274 339 29 26 36 11 357 4 7 7 12 14 12 8 4 1
166 169 165 171 171 163 143 125 146 165 152 141 149 160 163 339 269 114 64 311 348 27 266 313 284 342 353 344 14 26 345 341 325 318 320 171 345 110 142 58 212 236 223 218 251 265 155 104 12 305 316 9 98 95 328 239 220 81 191 261 264 217 199 228 239 260 252 249 292 321 198 235 280 43 32 24 33 5 350 356 1 5 10 12 10 6 2 0
120 149 158 163 161 155 150 121 108 138 145 135 123 123 126 24 64 106 54 317 10 10 307 5 357 10 17 4 357 5 346 326 320 329 353 351 296 296 171 18 332 240 240 189 244 260 199 144 143 72 87 125 154 148 97 105 114 247 264 298 297 262 198 211 179 162 246 265 12 29 220 241 260 21 63 59 46 20 5 357 357 1 4 7 8 3 2 6
98 129 146 149 151 148 147 134 112 111 120 121 113 102 126 343 18 97 356 301 308 1 354 22 14 4 360 343 326 343 326 315 351 4 3 343 13 37 6 3 3 315 342 29 312 300 219 127 57 91 173 219 223 223 150 146 163 240 261 289 296 300 286 268 273 249 266 288 60 63 303 257 262 70 84 80 53 30 20 9 1 360 360 2 5 3 6 11
97 113 132 135 138 124 115 122 112 109 117 115 101 65 64 71 57 84 332 328 353 8 338 323 356 335 317 288 11 344 285 273 358 9 328 305 30 62 79 18 356 321 339 339 317 331 9 107 133 170 157 196 246 286 325 212 170 218 275 305 297 309 308 292 295 289 280 288 101 87 11 265 217 107 112 95 65 42 24 18 10 5 2 1 4 4 6 11
102 107 126 126 121 107 100 100 97 114 121 102 80 78 72 23 49 151 301 330 341 321 297 300 314 315 349 24 5 332 263 104 10 342 323 318 29 48 67 47 22 342 290 304 324 344 316 299 127 152 79 114 241 306 341 323 298 83 8 325 293 302 295 288 297 294 294 301 303 100 18 286 261 128 131 113 76 52 31 20 15 15 11 4 5 7 8 9
106 107 114 108 95 84 80 72 77 110 119 84 65 91 83 316 249 185 296 332 315 313 298 185 277 278 79 58 21 348 326 34 22 353 354 17 35 36 30 17 11 0 321 327 12 339 291 299 87 64 18 235 220 100 353 298 305 88 64 269 269 319 294 278 286 287 294 300 289 252 261 4 64 129 138 120 67 45 29 20 17 15 13 11 9 10 10 10
107 101 90 73 56 50 58 55 65 101 117 91 75 75 77 293 269 187 236 343 326 319 305 264 332 342 34 16 39 64 55 339 350 355 40 61 44 34 21 12 0 355 8 353 350 359 310 298 113 102 75 190 199 71 304 313 336 149 233 298 342 331 278 281 284 282 273 277 270 262 267 100 104 163 166 142 38 35 24 19 18 11 10 11 11 11 8 8
96 88 71 46 37 44 54 54 83 110 108 65 93 91 191 208 254 200 195 327 316 311 303 306 21 5 359 349 352 5 355 311 344 345 30 112 57 19 360 28 26 347 4 347 331 57 318 298 69 99 113 128 109 272 241 297 320 284 295 335 339 246 218 257 282 298 289 276 267 272 276 270 267 229 167 121 8 15 13 13 13 9 10 9 8 9 4 4
97 93 69 31 26 42 55 73 110 117 96 50 102 121 240 182 146 252 213 309 272 246 291 330 14 6 359 345 350 348 332 340 354 347 21 65 58 24 359 12 57 346 327 303 304 54 310 295 340 64 93 124 164 237 249 154 64 318 310 322 330 282 260 269 281 298 294 286 281 277 278 277 273 279 66 1 357 1 359 5 9 7 8 4 1 3 1 359
113 109 63 12 16 37 56 99 120 95 85 88 114 135 236 279 108 70 15 324 280 263 278 18 4 13 61 2 333 349 338 350 348 333 27 26 41 47 20 353 345 337 325 283 306 355 292 284 304 213 177 187 197 261 329 345 102 161 256 245 37 272 280 290 288 294 285 280 285 286 282 282 283 60 20 357 360 357 354 3 6 4 6 0 356 357 356 354
88 102 29 358 8 32 57 99 98 36 73 99 56 111 73 348 99 88 7 284 301 326 341 91 332 339 46 47 333 355 354 359 338 318 32 29 40 76 34 358 323 326 328 233 278 333 264 250 280 265 227 273 300 6 340 323 343 152 302 8 356 294 282 284 269 241 268 276 286 292 283 283 71 80 34 17 12 359 356 0 0 360 1 359 357 354 351 349
72 81 20 355 1 20 61 67 57 31 88 93 61 106 66 64 86 68 138 207 261 342 358 56 56 11 15 20 50 2 314 326 342 303 45 35 23 66 46 11 306 310 323 264 95 1 332 260 283 297 309 308 321 9 349 300 26 45 1 5 343 317 306 291 282 166 233 278 281 284 283 290 62 75 46 37 21 6 2 358 356 354 352 353 353 351 349 345
64 88 26 1 5 35 74 63 37 358 101 72 60 72 32 57 77 38 107 186 274 18 47 59 51 42 36 12 15 286 301 315 345 340 67 70 34 28 11 343 291 276 314 332 34 6 338 280 279 285 289 292 309 21 59 29 87 85 52 36 352 316 334 304 300 311 302 287 280 271 277 287 68 69 57 52 28 16 9 0 356 352 349 347 345 346 347 340
53 106 32 9 8 51 79 75 101 23 68 69 53 60 14 26 60 16 36 24 9 34 40 62 53 23 54 35 329 273 310 310 291 10 55 109 89 34 327 326 314 289 328 354 39 354 274 228 281 288 285 276 264 86 76 99 121 107 51 51 32 307 351 303 293 306 297 288 289 275 274 291 81 89 57 49 27 15 10 3 357 349 347 345 342 345 345 337
51 137 31 11 11 157 120 72 139 95 79 149 91 71 39 42 43 18 20 22 18 27 40 56 45 5 43 40 312 320 320 317 56 37 49 106 104 143 278 323 354 17 3 352 348 340 323 298 311 311 314 313 289 78 357 223 283 331 9 46 33 352 328 283 276 290 274 277 293 282 278 307 81 115 28 15 5 355 357 359 353 346 345 344 343 343 341 335
82 121 302 11 27 59 94 25 124 119 125 122 76 48 20 76 54 359 22 46 22 6 42 64 36 329 9 242 268 7 347 335 10 16 51 49 52 101 325 338 16 24 0 351 332 304 298 305 304 307 317 327 325 316 323 324 317 324 50 68 27 7 329 301 299 288 278 299 310 286 286 314 339 340 340 349 343 335 336 343 345 345 343 339 338 338 336 330
125 71 276 358 28 50 76 21 40 106 129 117 79 35 3 59 78 305 352 68 45 18 39 47 3 277 1 4 4 31 23 8 321 343 27 3 345 27 348 344 25 6 354 24 9 283 251 272 278 280 279 292 302 298 311 324 312 307 318 348 84 66 325 311 299 290 312 322 302 302 324 325 321 322 326 330 330 326 325 330 337 341 338 337 335 331 330 326
107 96 34 337 38 49 71 44 22 71 120 160 88 49 4 18 39 212 82 68 57 34 64 68 37 21 11 1 7 19 354 340 339 64 36 353 319 322 328 15 41 347 339 20 12 336 258 298 14 329 283 284 291 291 300 312 303 304 315 334 61 60 358 332 319 325 342 323 292 326 334 319 310 317 320 324 328 325 321 323 329 334 333 333 329 324 323 323
36 135 317 323 28 39 53 39 29 61 65 53 85 52 18 34 36 32 40 65 107 6 359 85 40 28 17 336 339 12 345 340 47 64 10 354 336 324 335 73 50 353 357 28 17 27 288 296 73 28 284 280 283 286 295 306 303 307 317 339 13 14 27 36 5 358 356 326 301 320 320 306 303 310 315 326 334 328 321 319 321 327 330 329 326 322 321 321
56 115 30 342 55 82 56 2 358 69 58 48 59 38 27 54 56 47 357 4 78 20 5 39 26 15 25 1 3 52 6 351 11 332 283 142 331 318 335 61 72 16 22 35 28 34 262 303 88 269 279 279 282 284 291 320 309 311 346 31 23 14 31 34 9 351 346 324 311 315 307 297 301 311 323 336 339 331 323 316 315 321 328 327 322 319 319 319
152 138 132 72 83 71 40 5 311 83 57 31 49 50 22 40 58 75 15 5 38 24 4 19 11 352 26 48 50 86 42 300 263 258 229 214 299 240 329 342 42 14 10 25 24 352 340 6 75 283 284 281 273 265 323 324 316 317 38 43 25 21 28 18 354 341 336 320 312 312 301 293 309 348 339 327 330 329 325 321 318 319 324 324 319 317 317 316
88 110 138 117 83 1 356 31 357 68 61 30 38 67 42 44 49 83 71 29 21 30 359 347 349 314 190 52 44 37 306 277 260 260 253 254 283 28 30 349 335 331 350 31 349 344 2 346 59 11 305 298 127 8 316 319 338 97 52 28 20 25 19 352 333 324 319 314 310 309 304 304 324 338 325 321 329 330 327 323 319 317 319 318 316 316 316 314
98 92 111 105 84 357 354 38 9 54 81 35 35 59 47 56 286 212 112 86 12 56 32 325 325 269 200 25 14 340 308 290 274 278 274 242 198 86 55 55 65 337 318 97 352 5 32 321 327 348 309 302 90 337 315 303 175 115 47 27 16 19 357 334 326 317 313 310 304 301 302 307 319 327 326 327 327 326 324 318 314 314 312 311 313 312 309 310